Regional Weather Roundup
Issued by NWS

Home | Current Version | Previous Version | Text Only | Print | Product List | Glossary Off
Versions: 1 2 3 4 5 6 7 8 9 10 11 12 13 14 15 16 17 18 19 20 21 22 23 24 25 26 27 28 29 30 31 32 33 34 35 36 37 38 39 40 41 42 43 44 45 46 47 48 49 50

000
ASUS43 KOAX 282302
RWRNE

WEATHER ROUNDUP FOR NEBRASKA
NATIONAL WEATHER SERVICE OMAHA NE
500 PM CST SAT FEB 28 2015

NOTES: SATELLITE DATA IS BEING USED TO AUGMENT CLOUD COVER ABOVE
       12000 FEET.
       "FAIR" INDICATES FEW OR NO CLOUDS BELOW 12,000 FEET WITH NO
       SIGNIFICANT WEATHER AND/OR OBSTRUCTIONS TO VISIBILITY.

  * THESE STATIONS DO NOT REPORT WEATHER SUCH AS RAIN...SNOW OR FOG.

NEZ001>004-019>022-054>056-010000-
NEBRASKA PANHANDLE

CITY           SKY/WX    TMP DP  RH WIND       PRES   REMARKS
SCOTTSBLUFF    SUNNY     32  10  40 NE8       30.01S WCI  25
ALLIANCE       SUNNY     30   8  39 NE9       30.01S WCI  22
CHADRON        SUNNY     29  13  51 S8        30.07F WCI  21
KIMBALL        MOSUNNY   26  14  61 NE6       29.94S WCI  19
SIDNEY         MOSUNNY   27  12  53 E5        30.00S WCI  22
$$

NEZ057>060-069>072-079>082-010000-
SOUTHWEST NEBRASKA

CITY           SKY/WX    TMP DP  RH WIND       PRES   REMARKS
NORTH PLATTE   MOSUNNY   27   9  46 S6        30.12S WCI  20
IMPERIAL         N/A     25   9  50 S10       30.09R WCI  15
MCCOOK         CLOUDY    27  12  53 S7        30.16R WCI  19
$$

NEZ005>010-023>029-035>040-094-010000-
NORTH CENTRAL NEBRASKA

CITY           SKY/WX    TMP DP  RH WIND       PRES   REMARKS
VALENTINE      MOSUNNY   33   9  36 NW8       30.11R WCI  26
AINSWORTH      SUNNY     32  10  40 W3        30.11S
BROKEN BOW     SUNNY     30  11  45 W9        30.13F WCI  22
ORD            SUNNY     30   8  39 S9        30.17S WCI  22
$$

NEZ041-046>049-061>064-073>077-083>087-010000-
SOUTH CENTRAL NEBRASKA

CITY           SKY/WX    TMP DP  RH WIND       PRES   REMARKS
GRAND ISLAND   PTSUNNY   23  12  62 S13       30.25S WCI  11
HASTINGS       CLOUDY    21  12  68 SW9       30.23F WCI  11
HEBRON         CLOUDY    21  14  73 S7        30.31S WCI  13
KEARNEY *      CLOUDY    23  10  58 S9        30.21F WCI  13
$$

NEZ011>018-030>034-042>045-010000-
NORTHEAST NEBRASKA

CITY           SKY/WX    TMP DP  RH WIND       PRES   REMARKS
NORFOLK        MOSUNNY   27  12  53 S12       30.23F WCI  17
BLAIR          CLOUDY    23  16  74 S13       30.31F WCI  11
COLUMBUS *     CLOUDY    23   9  54 S13       30.29F WCI  11
$$

NEZ050>053-065>068-078-088>093-010000-
SOUTHEAST NEBRASKA

CITY           SKY/WX    TMP DP  RH WIND       PRES   REMARKS
LINCOLN        CLOUDY    23  16  74 S8        30.33F WCI  14
OMAHA EPPLEY   LGT SNOW  23  16  74 S12       30.36F FOG     WCI  12
FALLS CITY     FLURRIES  23  17  78 SE7       30.37F WCI  15
$$

NEZ044-045-051>053-067-010000-
OMAHA AREA

CITY           SKY/WX    TMP DP  RH WIND       PRES   REMARKS
OMAHA EPPLEY   LGT SNOW  23  16  74 S12       30.36F FOG     WCI  12
BLAIR          CLOUDY    23  16  74 S13       30.31F WCI  11
OFFUTT AFB     PTSUNNY   23  17  76 S7        30.35F WCI  15
$$


USA.gov is the U.S. government's official web portal to all federal, state and local government web resources and services.